Location: Unspecified
(51.5147°N, 7.4673°E)
Time: 02:46:01
(UTC+01:00)

A-11 Canister half - Pass Details

Date: 23 February 2026
Orbit: 1512 x 1687 km, 47.2° (Epoch: 8 March)

Event Time Altitude Azimuth Distance (km) Brightness Sun altitude
Rises 04:13:10 0° 284° (WNW) 4,864 - -30.5°
Reaches altitude 10° 04:18:56 10° 258° (WSW) 3,830 - -29.7°
Maximum altitude 04:22:22 12° 237° (WSW) 3,611 - -29.2°
Drops below altitude 10° 04:25:47 10° 216° (SW) 3,773 - -28.7°
Sets 04:31:24 0° 189° (S) 4,711 - -27.9°
